Regional Weather Roundup
Issued by NWS

Home | Current Version | Previous Version | Text Only | Print | Product List | Glossary Off
Versions: 1 2 3 4 5 6 7 8 9 10 11 12 13 14 15 16 17 18 19 20 21 22 23 24 25 26 27 28 29 30 31 32 33 34 35 36 37 38 39 40 41 42 43 44 45 46 47 48 49 50

000
ASUS45 KSLC 302210
RWRUT

UTAH REGIONAL WEATHER ROUNDUP
NATIONAL WEATHER SERVICE SALT LAKE CITY UT
400 PM MDT WED JUL 30 2014

UTZ001>011-023>025-302300-

NORTHERN UTAH

CITY           SKY/WX    TMP DP  RH WIND       PRES   REMARKS
HILL AFB       PTSUNNY   74  57  55 E13       30.23F
LOGAN          PTSUNNY   78  55  44 E14       30.22F
OGDEN          CLOUDY    76  56  49 SW5       30.20F
PROVO AIRPORT  MOSUNNY   79  59  50 W9        30.20F
SALT LAKE CITY PTSUNNY   79  57  46 CALM      30.18F
VERNAL         CLOUDY    67  59  75 N7        30.25F
WENDOVER       SUNNY     84  54  34 E14       30.18F
HEBER CITY     PTSUNNY   68  55  64 NE7       30.29F
WEST JORDAN    MOSUNNY   79  64  61 NW9       30.21F

$$

UTZ012>022-026-027-302300-

SOUTHERN UTAH

CITY           SKY/WX    TMP DP  RH WIND       PRES   REMARKS
BRYCE CANYON   MOSUNNY   77  44  30 NW9G20    30.35F
CEDAR CITY     SUNNY     84  45  25 VRB7      30.21F
MILFORD        SUNNY     86  51  29 VRB6      30.17F
MOAB/CYNLANDS  SUNNY     85  53  33 VRB3      30.11F
PRICE          PTSUNNY   82  49  31 W9        30.20F
ST GEORGE      MOCLDY   100  52  19 W8        29.97F HX  98
KANAB            N/A     91  48  22 W8G17     30.14F

$$

REGIONAL REPORTS     COLORADO/ARIZONA

CITY           SKY/WX    TMP DP  RH WIND       PRES   REMARKS
CRAIG, CO      CLOUDY    60  54  80 NE13      30.27F
GRAND JUNCTION PTSUNNY   81  50  33 W9        30.14F
RIFLE          CLOUDY    75  56  51 N7        30.20S
MONTROSE       MOSUNNY   79  53  40 N8        30.21F
CORTEZ         SUNNY     88  46  23 NW9G18    30.19F
PAGE, AZ       SUNNY     95  48  20 SE7       30.06F HX  91
GRAND CANYON   SUNNY     85  44  23 W10       30.27F
KINGMAN        MOSUNNY   97  49  19 W5        30.03F HX  94
FLAGSTAFF      MOSUNNY   81  40  23 W8G22     30.32F

$$

REGIONAL REPORTS    NEVADA/IDAHO/WYOMING

CITY           SKY/WX    TMP DP  RH WIND       PRES   REMARKS
LAS VEGAS, NV  MOSUNNY  105  46  13 NW10G18   29.89F HX 101
ELY            SUNNY     83  39  21 N15G23    30.29F
ELKO           PTSUNNY   89  40  17 NW5       30.19F
POCATELLO, ID  MOSUNNY   85  49  28 E14       30.20F
BURLEY         SUNNY     86  46  24 VRB3      30.15F
EVANSTON, WY   CLOUDY    61  53  75 E15       30.40R
ROCK SPRINGS   LGT RAIN  61  55  81 NE13      30.39F

$$



USA.gov is the U.S. government's official web portal to all federal, state and local government web resources and services.